| time (UTC) | temp F | wind direction | speed MPH | gust MPH | rain 1hr in | rain 24hr in | rain mn in | humidity % | barometer mb |
| 20260906045959 | 76 | 265 | 0.0 | 0.0 | 0.00 | 0.02 | 0.02 | 92 | 1011.9 |
| 20260906045005 | 77 | 265 | 0.0 | 0.0 | 0.00 | 0.02 | 0.02 | 92 | 1012.0 |
| 20260906043947 | 77 | 265 | 0.0 | 0.0 | 0.00 | 0.02 | 0.02 | 92 | 1012.0 |
| 20260906043521 | 77 | 265 | 0.0 | 0.0 | 0.00 | 0.02 | 0.02 | 92 | 1012.1 |
| 20260906042951 | 77 | 265 | 0.0 | 0.0 | 0.00 | 0.02 | 0.02 | 93 | 1012.1 |
| 20260906041949 | 77 | 265 | 0.0 | 0.0 | 0.00 | 0.02 | 0.02 | 92 | 1012.1 |
| 20260906040940 | 77 | 265 | 0.0 | 0.0 | 0.00 | 0.02 | 0.02 | 92 | 1011.8 |
| 20260906040521 | 76 | 265 | 0.0 | 0.0 | 0.00 | 0.02 | 0.02 | 92 | 1011.7 |
| 20260906035948 | 77 | 265 | 0.0 | 0.0 | 0.00 | 0.02 | 0.02 | 92 | 1012.1 |
| 20260906035502 | 77 | 265 | 0.0 | 0.0 | 0.00 | 0.02 | 0.02 | 92 | 1012.2 |
| 20260906034445 | 77 | 265 | 0.0 | 0.0 | 0.00 | 0.02 | 0.02 | 92 | 1012.4 |
| 20260906034023 | 77 | 265 | 0.0 | 0.0 | 0.00 | 0.02 | 0.02 | 92 | 1012.4 |
| 20260906032951 | 77 | 265 | 0.0 | 0.0 | 0.00 | 0.02 | 0.02 | 92 | 1012.2 |
| 20260906031956 | 77 | 265 | 0.0 | 0.0 | 0.00 | 0.02 | 0.02 | 92 | 1012.0 |
| 20260906030940 | 77 | 265 | 0.0 | 0.0 | 0.00 | 0.02 | 0.02 | 91 | 1012.1 |
| 20260906030503 | 77 | 265 | 0.0 | 0.0 | 0.00 | 0.02 | 0.02 | 91 | 1012.0 |
| 20260906030031 | 77 | 265 | 0.0 | 0.0 | 0.00 | 0.02 | 0.02 | 91 | 1011.9 |
| 20260906025448 | 77 | 265 | 0.0 | 0.0 | 0.00 | 0.02 | 0.02 | 91 | 1012.2 |
| 20260906024459 | 77 | 265 | 0.0 | 0.0 | 0.00 | 0.02 | 0.02 | 91 | 1011.9 |
| 20260906024029 | 77 | 265 | 0.0 | 0.0 | 0.00 | 0.02 | 0.02 | 91 | 1012.0 |
| 20260906023447 | 78 | 265 | 0.0 | 0.0 | 0.00 | 0.02 | 0.02 | 91 | 1012.2 |
| 20260906022448 | 78 | 265 | 0.0 | 0.0 | 0.00 | 0.02 | 0.02 | 91 | 1012.3 |
| 20260906022022 | 78 | 265 | 0.0 | 0.0 | 0.00 | 0.02 | 0.02 | 91 | 1012.3 |
| 20260906021009 | 78 | 265 | 0.0 | 2.0 | 0.00 | 0.02 | 0.02 | 91 | 1011.9 |
| 20260906020005 | 78 | 282 | 0.0 | 1.0 | 0.00 | 0.02 | 0.02 | 91 | 1011.9 |
| 20260906014950 | 79 | 282 | 0.0 | 2.0 | 0.00 | 0.02 | 0.02 | 91 | 1012.2 |
| 20260906014024 | 79 | 286 | 0.0 | 2.0 | 0.00 | 0.02 | 0.02 | 91 | 1012.0 |
| 20260906013523 | 79 | 271 | 1.0 | 2.0 | 0.00 | 0.02 | 0.02 | 91 | 1012.0 |
| 20260906012936 | 79 | 278 | 0.0 | 2.0 | 0.00 | 0.02 | 0.02 | 91 | 1011.8 |
| 20260906012510 | 79 | 282 | 0.0 | 2.0 | 0.00 | 0.02 | 0.02 | 90 | 1011.9 |
| 20260906012028 | 79 | 271 | 0.0 | 2.0 | 0.00 | 0.02 | 0.02 | 90 | 1012.1 |
| 20260906011500 | 79 | 277 | 1.0 | 3.0 | 0.00 | 0.02 | 0.02 | 90 | 1012.1 |
| 20260906011033 | 79 | 290 | 1.0 | 3.0 | 0.00 | 0.02 | 0.02 | 90 | 1012.4 |
| 20260906010450 | 79 | 278 | 0.0 | 3.0 | 0.00 | 0.02 | 0.02 | 90 | 1012.1 |
| 20260906005452 | 79 | 283 | 1.0 | 1.0 | 0.00 | 0.02 | 0.02 | 89 | 1011.8 |
| 20260906005028 | 80 | 276 | 0.0 | 0.0 | 0.00 | 0.02 | 0.02 | 89 | 1011.5 |
| 20260906004435 | 80 | 283 | 0.0 | 0.0 | 0.00 | 0.02 | 0.02 | 88 | 1011.5 |
| 20260906003500 | 80 | 283 | 0.0 | 1.0 | 0.00 | 0.02 | 0.02 | 88 | 1011.6 |
| 20260906003031 | 80 | 283 | 0.0 | 2.0 | 0.00 | 0.02 | 0.02 | 87 | 1011.7 |
| 20260906002452 | 80 | 287 | 0.0 | 3.0 | 0.00 | 0.02 | 0.02 | 87 | 1011.9 |
| 20260906002015 | 80 | 273 | 0.0 | 1.0 | 0.00 | 0.02 | 0.02 | 87 | 1011.8 |
| 20260906001435 | 81 | 274 | 0.0 | 1.0 | 0.00 | 0.02 | 0.02 | 87 | 1011.8 |
| 20260906001018 | 81 | 277 | 0.0 | 2.0 | 0.00 | 0.02 | 0.02 | 87 | 1011.7 |
| 20260906000437 | 81 | 276 | 0.0 | 2.0 | 0.00 | 0.02 | 0.02 | 87 | 1011.9 |
| 20260906000007 | 81 | 257 | 0.0 | 0.0 | 0.00 | 0.02 | 0.02 | 87 | 1011.8 |
| 20260905235000 | 81 | 257 | 0.0 | 1.0 | 0.00 | 0.02 | 0.02 | 87 | 1011.9 |
| 20260905234435 | 81 | 255 | 0.0 | 0.0 | 0.00 | 0.02 | 0.02 | 87 | 1011.7 |
| 20260905233443 | 81 | 255 | 0.0 | 1.0 | 0.00 | 0.02 | 0.02 | 87 | 1011.8 |
| 20260905232458 | 81 | 255 | 0.0 | 0.0 | 0.00 | 0.02 | 0.02 | 86 | 1011.8 |
| 20260905232015 | 81 | 255 | 0.0 | 0.0 | 0.00 | 0.02 | 0.02 | 86 | 1011.7 |
| 20260905231439 | 81 | 255 | 0.0 | 0.0 | 0.00 | 0.02 | 0.02 | 86 | 1011.7 |
| 20260905231015 | 81 | 255 | 0.0 | 0.0 | 0.00 | 0.02 | 0.02 | 85 | 1011.9 |
| 20260905230442 | 81 | 255 | 0.0 | 0.0 | 0.00 | 0.02 | 0.02 | 85 | 1011.7 |
| 20260905230005 | 81 | 255 | 0.0 | 0.0 | 0.00 | 0.02 | 0.02 | 85 | 1011.6 |
| 20260905225013 | 81 | 256 | 0.0 | 1.0 | 0.00 | 0.02 | 0.02 | 85 | 1011.6 |
| 20260905224434 | 81 | 256 | 1.0 | 1.0 | 0.00 | 0.02 | 0.02 | 84 | 1011.6 |
| 20260905224011 | 81 | 254 | 0.0 | 0.0 | 0.00 | 0.02 | 0.02 | 86 | 1011.6 |
| 20260905222942 | 80 | 254 | 0.0 | 0.0 | 0.00 | 0.02 | 0.02 | 86 | 1011.5 |
| 20260905222517 | 80 | 254 | 0.0 | 0.0 | 0.00 | 0.02 | 0.02 | 86 | 1011.5 |
| 20260905222053 | 80 | 254 | 0.0 | 0.0 | 0.00 | 0.02 | 0.02 | 86 | 1011.5 |
| 20260905221436 | 80 | 254 | 0.0 | 1.0 | 0.00 | 0.02 | 0.02 | 86 | 1011.7 |
| 20260905221011 | 80 | 254 | 0.0 | 1.0 | 0.00 | 0.02 | 0.02 | 86 | 1011.7 |
| 20260905220543 | 80 | 254 | 0.0 | 1.0 | 0.00 | 0.02 | 0.02 | 86 | 1011.7 |
| 20260905215952 | 81 | 254 | 0.0 | 1.0 | 0.00 | 0.02 | 0.02 | 85 | 1011.8 |
| 20260905215030 | 81 | 245 | 0.0 | 1.0 | 0.00 | 0.02 | 0.02 | 84 | 1011.9 |
| 20260905214446 | 81 | 243 | 0.0 | 1.0 | 0.00 | 0.02 | 0.02 | 85 | 1012.1 |
| 20260905214025 | 80 | 243 | 0.0 | 1.0 | 0.01 | 0.02 | 0.02 | 85 | 1012.0 |
| 20260905213445 | 81 | 243 | 0.0 | 0.0 | 0.01 | 0.02 | 0.02 | 86 | 1011.9 |
| 20260905212445 | 80 | 244 | 0.0 | 1.0 | 0.02 | 0.02 | 0.02 | 86 | 1011.8 |
| 20260905212024 | 80 | 226 | 0.0 | 1.0 | 0.02 | 0.02 | 0.02 | 86 | 1011.7 |
| 20260905211553 | 80 | 223 | 0.0 | 1.0 | 0.02 | 0.02 | 0.02 | 86 | 1011.5 |
| 20260905210940 | 80 | 175 | 0.0 | 0.0 | 0.02 | 0.02 | 0.02 | 86 | 1011.6 |
| 20260905210529 | 80 | 186 | 0.0 | 0.0 | 0.02 | 0.02 | 0.02 | 86 | 1011.7 |
| 20260905205941 | 80 | 206 | 0.0 | 0.0 | 0.02 | 0.02 | 0.02 | 86 | 1011.8 |
| 20260905205520 | 80 | 202 | 0.0 | 0.0 | 0.02 | 0.02 | 0.02 | 86 | 1011.9 |
| 20260905204942 | 80 | 178 | 0.0 | 1.0 | 0.02 | 0.02 | 0.02 | 86 | 1012.1 |
| 20260905204000 | 81 | 236 | 0.0 | 2.0 | 0.01 | 0.01 | 0.01 | 84 | 1012.4 |
| 20260905203527 | 82 | 267 | 1.0 | 2.0 | 0.01 | 0.01 | 0.01 | 83 | 1012.5 |
| 20260905202948 | 82 | 270 | 1.0 | 4.0 | 0.01 | 0.01 | 0.01 | 81 | 1012.6 |
| 20260905201959 | 85 | 306 | 3.0 | 6.0 | 0.00 | 0.00 | 0.00 | 75 | 1012.6 |
| 20260905200946 | 90 | 278 | 2.0 | 4.0 | 0.00 | 0.00 | 0.00 | 66 | 1012.4 |
| 20260905195955 | 93 | 271 | 1.0 | 3.0 | 0.00 | 0.00 | 0.00 | 54 | 1011.9 |
| 20260905195530 | 94 | 271 | 1.0 | 1.0 | 0.00 | 0.00 | 0.00 | 53 | 1011.7 |
| 20260905194945 | 95 | 233 | 0.0 | 0.0 | 0.00 | 0.00 | 0.00 | 51 | 1011.6 |
| 20260905194524 | 96 | 130 | 0.0 | 1.0 | 0.00 | 0.00 | 0.00 | 52 | 1011.7 |
| 20260905193957 | 96 | 130 | 0.0 | 1.0 | 0.00 | 0.00 | 0.00 | 53 | 1011.7 |
| 20260905193520 | 96 | 140 | 0.0 | 1.0 | 0.00 | 0.00 | 0.00 | 51 | 1011.7 |
| 20260905192942 | 95 | 138 | 0.0 | 2.0 | 0.00 | 0.00 | 0.00 | 51 | 1011.7 |
| 20260905192513 | 94 | 137 | 0.0 | 2.0 | 0.00 | 0.00 | 0.00 | 53 | 1011.8 |
| 20260905192024 | 94 | 136 | 0.0 | 1.0 | 0.00 | 0.00 | 0.00 | 55 | 1011.8 |
| 20260905191443 | 93 | 277 | 0.0 | 2.0 | 0.00 | 0.00 | 0.00 | 54 | 1011.8 |
| 20260905191030 | 94 | 273 | 1.0 | 5.0 | 0.00 | 0.00 | 0.00 | 52 | 1012.0 |
| 20260905190000 | 95 | 139 | 0.0 | 0.0 | 0.00 | 0.00 | 0.00 | 55 | 1012.0 |
| 20260905184950 | 95 | 92 | 0.0 | 3.0 | 0.00 | 0.00 | 0.00 | 53 | 1012.2 |
| 20260905184530 | 96 | 93 | 1.0 | 3.0 | 0.00 | 0.00 | 0.00 | 51 | 1012.3 |
| 20260905183943 | 96 | 236 | 0.0 | 1.0 | 0.00 | 0.00 | 0.00 | 53 | 1012.4 |
| 20260905183508 | 95 | 281 | 0.0 | 1.0 | 0.00 | 0.00 | 0.00 | 58 | 1012.4 |
| 20260905182451 | 94 | 138 | 0.0 | 3.0 | 0.00 | 0.00 | 0.00 | 55 | 1012.5 |
| 20260905181441 | 94 | 128 | 0.0 | 4.0 | 0.00 | 0.00 | 0.00 | 56 | 1012.8 |
| 20260905181020 | 95 | 108 | 1.0 | 4.0 | 0.00 | 0.00 | 0.00 | 54 | 1012.9 |
| 20260905180539 | 97 | 138 | 0.0 | 1.0 | 0.00 | 0.00 | 0.00 | 53 | 1012.9 |
| 20260905175936 | 98 | 138 | 0.0 | 0.0 | 0.00 | 0.00 | 0.00 | 52 | 1013.0 |
| 20260905175511 | 98 | 169 | 0.0 | 2.0 | 0.00 | 0.00 | 0.00 | 52 | 1013.2 |
| 20260905174437 | 96 | 299 | 1.0 | 3.0 | 0.00 | 0.00 | 0.00 | 54 | 1013.4 |
| 20260905173436 | 95 | 92 | 1.0 | 4.0 | 0.00 | 0.00 | 0.00 | 54 | 1013.4 |
| 20260905173026 | 95 | 102 | 1.0 | 4.0 | 0.00 | 0.00 | 0.00 | 53 | 1013.5 |
| 20260905172457 | 95 | 142 | 1.0 | 3.0 | 0.00 | 0.00 | 0.00 | 54 | 1013.6 |
| 20260905171500 | 95 | 123 | 0.0 | 1.0 | 0.00 | 0.00 | 0.00 | 54 | 1013.7 |
| 20260905170455 | 94 | 136 | 0.0 | 2.0 | 0.00 | 0.00 | 0.00 | 57 | 1013.8 |
| 20260905170037 | 94 | 219 | 0.0 | 1.0 | 0.00 | 0.00 | 0.00 | 58 | 1013.9 |
| 20260905165555 | 94 | 271 | 0.0 | 1.0 | 0.00 | 0.00 | 0.00 | 59 | 1014.0 |
| 20260905164951 | 93 | 273 | 0.0 | 1.0 | 0.00 | 0.00 | 0.00 | 60 | 1014.0 |
| 20260905164528 | 93 | 225 | 1.0 | 2.0 | 0.00 | 0.00 | 0.00 | 62 | 1014.1 |
| 20260905163935 | 92 | 265 | 1.0 | 3.0 | 0.00 | 0.00 | 0.00 | 62 | 1014.2 |
| 20260905162957 | 92 | 98 | 1.0 | 2.0 | 0.00 | 0.00 | 0.00 | 63 | 1014.3 |
| 20260905162528 | 92 | 109 | 0.0 | 2.0 | 0.00 | 0.00 | 0.00 | 66 | 1014.4 |
| 20260905161937 | 91 | 269 | 1.0 | 2.0 | 0.00 | 0.00 | 0.00 | 65 | 1014.4 |
| 20260905160957 | 91 | 242 | 0.0 | 3.0 | 0.00 | 0.00 | 0.00 | 65 | 1014.3 |
| 20260905160007 | 90 | 192 | 0.0 | 1.0 | 0.00 | 0.00 | 0.00 | 66 | 1014.4 |
| 20260905154945 | 90 | 123 | 0.0 | 3.0 | 0.00 | 0.00 | 0.00 | 69 | 1014.4 |
| 20260905154000 | 88 | 136 | 1.0 | 3.0 | 0.00 | 0.00 | 0.00 | 71 | 1014.4 |
| 20260905152959 | 87 | 144 | 0.0 | 3.0 | 0.00 | 0.00 | 0.00 | 74 | 1014.2 |
| 20260905151935 | 85 | 115 | 0.0 | 2.0 | 0.00 | 0.00 | 0.00 | 76 | 1014.3 |
| 20260905151507 | 85 | 98 | 1.0 | 2.0 | 0.00 | 0.00 | 0.00 | 77 | 1014.3 |
| 20260905150454 | 84 | 109 | 0.0 | 3.0 | 0.00 | 0.00 | 0.00 | 78 | 1014.2 |
| 20260905150018 | 84 | 78 | 0.0 | 3.0 | 0.00 | 0.00 | 0.00 | 79 | 1014.1 |
| 20260905145026 | 83 | 84 | 0.0 | 4.0 | 0.00 | 0.00 | 0.00 | 80 | 1014.2 |
| 20260905144435 | 83 | 90 | 0.0 | 1.0 | 0.00 | 0.00 | 0.00 | 80 | 1014.2 |
| 20260905144019 | 83 | 90 | 0.0 | 2.0 | 0.00 | 0.00 | 0.00 | 81 | 1014.2 |
| 20260905143432 | 83 | 90 | 0.0 | 2.0 | 0.00 | 0.00 | 0.00 | 80 | 1014.2 |
| 20260905142440 | 83 | 121 | 0.0 | 3.0 | 0.00 | 0.00 | 0.00 | 80 | 1014.2 |
| 20260905141447 | 83 | 92 | 0.0 | 0.0 | 0.00 | 0.00 | 0.00 | 80 | 1014.2 |
| 20260905140450 | 83 | 92 | 0.0 | 1.0 | 0.00 | 0.00 | 0.00 | 79 | 1014.1 |
| 20260905140025 | 83 | 115 | 0.0 | 1.0 | 0.00 | 0.00 | 0.00 | 80 | 1014.0 |
| 20260905135442 | 83 | 119 | 0.0 | 1.0 | 0.00 | 0.00 | 0.00 | 79 | 1014.1 |
| 20260905135001 | 83 | 88 | 0.0 | 2.0 | 0.00 | 0.00 | 0.00 | 79 | 1014.0 |
| 20260905133942 | 83 | 91 | 0.0 | 1.0 | 0.00 | 0.00 | 0.00 | 80 | 1014.0 |
| 20260905133534 | 82 | 91 | 0.0 | 0.0 | 0.00 | 0.00 | 0.00 | 81 | 1014.0 |
| 20260905132503 | 81 | 82 | 0.0 | 1.0 | 0.00 | 0.00 | 0.00 | 82 | 1013.9 |
| 20260905132024 | 81 | 71 | 0.0 | 1.0 | 0.00 | 0.00 | 0.00 | 83 | 1013.8 |
| 20260905131435 | 80 | 71 | 0.0 | 2.0 | 0.00 | 0.00 | 0.00 | 84 | 1013.9 |
| 20260905131010 | 80 | 70 | 0.0 | 2.0 | 0.00 | 0.00 | 0.00 | 84 | 1013.8 |
| 20260905130001 | 79 | 96 | 0.0 | 1.0 | 0.00 | 0.00 | 0.00 | 86 | 1013.9 |
| 20260905124455 | 78 | 96 | 0.0 | 1.0 | 0.00 | 0.00 | 0.00 | 87 | 1013.7 |
| 20260905124006 | 78 | 96 | 0.0 | 0.0 | 0.00 | 0.00 | 0.00 | 87 | 1013.6 |
| 20260905122958 | 78 | 96 | 0.0 | 0.0 | 0.00 | 0.00 | 0.00 | 87 | 1013.6 |
| 20260905121949 | 78 | 96 | 0.0 | 0.0 | 0.00 | 0.00 | 0.00 | 87 | 1013.6 |
| 20260905121518 | 78 | 96 | 0.0 | 0.0 | 0.00 | 0.00 | 0.00 | 87 | 1013.5 |
| 20260905120946 | 78 | 96 | 0.0 | 0.0 | 0.00 | 0.00 | 0.00 | 86 | 1013.5 |
| 20260905115956 | 78 | 96 | 0.0 | 0.0 | 0.00 | 0.00 | 0.00 | 86 | 1013.4 |
| 20260905114957 | 78 | 96 | 0.0 | 1.0 | 0.00 | 0.00 | 0.00 | 86 | 1013.4 |
| 20260905113951 | 78 | 96 | 0.0 | 0.0 | 0.00 | 0.00 | 0.00 | 86 | 1013.3 |
| 20260905113000 | 78 | 96 | 0.0 | 0.0 | 0.00 | 0.00 | 0.00 | 86 | 1013.2 |
| 20260905112531 | 78 | 96 | 0.0 | 1.0 | 0.00 | 0.00 | 0.00 | 86 | 1013.1 |
| 20260905111941 | 78 | 96 | 0.0 | 1.0 | 0.00 | 0.00 | 0.00 | 86 | 1013.1 |
| 20260905111457 | 78 | 96 | 0.0 | 0.0 | 0.00 | 0.00 | 0.00 | 87 | 1013.1 |
| 20260905110501 | 78 | 96 | 0.0 | 1.0 | 0.00 | 0.00 | 0.00 | 87 | 1013.1 |
| 20260905105500 | 78 | 96 | 0.0 | 0.0 | 0.00 | 0.00 | 0.00 | 88 | 1013.1 |
| 20260905104503 | 77 | 96 | 0.0 | 1.0 | 0.00 | 0.00 | 0.00 | 89 | 1013.1 |
| 20260905103503 | 77 | 96 | 0.0 | 0.0 | 0.00 | 0.00 | 0.00 | 88 | 1013.2 |
| 20260905103029 | 77 | 96 | 0.0 | 0.0 | 0.00 | 0.00 | 0.00 | 88 | 1013.1 |
| 20260905102020 | 77 | 96 | 0.0 | 0.0 | 0.00 | 0.00 | 0.00 | 88 | 1013.1 |
| 20260905101435 | 77 | 96 | 0.0 | 0.0 | 0.00 | 0.00 | 0.00 | 88 | 1013.1 |
| 20260905101015 | 77 | 96 | 0.0 | 0.0 | 0.00 | 0.00 | 0.00 | 88 | 1013.1 |
| 20260905100433 | 78 | 96 | 0.0 | 0.0 | 0.00 | 0.00 | 0.00 | 88 | 1013.1 |
| 20260905095959 | 77 | 96 | 0.0 | 0.0 | 0.00 | 0.00 | 0.00 | 88 | 1013.0 |
| 20260905094950 | 77 | 96 | 0.0 | 0.0 | 0.00 | 0.00 | 0.00 | 88 | 1013.0 |
| 20260905093939 | 77 | 96 | 0.0 | 0.0 | 0.00 | 0.00 | 0.00 | 88 | 1013.0 |
| 20260905093510 | 78 | 96 | 0.0 | 0.0 | 0.00 | 0.00 | 0.00 | 88 | 1012.9 |
| 20260905092505 | 78 | 96 | 0.0 | 0.0 | 0.00 | 0.00 | 0.00 | 88 | 1012.8 |
| 20260905092026 | 78 | 96 | 0.0 | 0.0 | 0.00 | 0.00 | 0.00 | 88 | 1012.8 |
| 20260905091439 | 78 | 96 | 0.0 | 0.0 | 0.00 | 0.00 | 0.00 | 88 | 1012.7 |
| 20260905091022 | 78 | 96 | 0.0 | 0.0 | 0.00 | 0.00 | 0.00 | 87 | 1012.7 |
| 20260905090439 | 78 | 96 | 0.0 | 0.0 | 0.00 | 0.00 | 0.00 | 87 | 1012.7 |
| 20260905090013 | 78 | 96 | 0.0 | 0.0 | 0.00 | 0.00 | 0.00 | 87 | 1012.7 |
| 20260905085523 | 78 | 96 | 0.0 | 0.0 | 0.00 | 0.00 | 0.00 | 87 | 1012.6 |
| 20260905085045 | 78 | 96 | 0.0 | 0.0 | 0.00 | 0.00 | 0.00 | 87 | 1012.6 |
| 20260905084436 | 78 | 96 | 0.0 | 0.0 | 0.00 | 0.00 | 0.00 | 86 | 1012.5 |
| 20260905083452 | 79 | 96 | 0.0 | 0.0 | 0.00 | 0.00 | 0.00 | 86 | 1012.5 |
| 20260905082958 | 79 | 96 | 0.0 | 0.0 | 0.00 | 0.00 | 0.00 | 85 | 1012.6 |
| 20260905081959 | 79 | 96 | 0.0 | 0.0 | 0.00 | 0.00 | 0.00 | 85 | 1012.6 |
| 20260905081000 | 79 | 96 | 0.0 | 0.0 | 0.00 | 0.00 | 0.00 | 85 | 1012.7 |
| 20260905075952 | 79 | 96 | 0.0 | 0.0 | 0.00 | 0.00 | 0.00 | 84 | 1012.7 |
| 20260905074956 | 79 | 96 | 0.0 | 0.0 | 0.00 | 0.00 | 0.00 | 84 | 1012.8 |
| 20260905074518 | 80 | 96 | 0.0 | 0.0 | 0.00 | 0.00 | 0.00 | 84 | 1012.7 |
| 20260905073458 | 80 | 96 | 0.0 | 0.0 | 0.00 | 0.00 | 0.00 | 83 | 1012.9 |
| 20260905072454 | 80 | 96 | 0.0 | 0.0 | 0.00 | 0.00 | 0.00 | 83 | 1012.9 |
| 20260905071501 | 80 | 96 | 0.0 | 1.0 | 0.00 | 0.00 | 0.00 | 83 | 1013.1 |
| 20260905070508 | 80 | 96 | 0.0 | 1.0 | 0.00 | 0.00 | 0.00 | 82 | 1013.1 |
| 20260905065934 | 80 | 96 | 0.0 | 0.0 | 0.00 | 0.00 | 0.00 | 82 | 1013.1 |
| 20260905065435 | 80 | 96 | 0.0 | 0.0 | 0.00 | 0.00 | 0.00 | 82 | 1013.3 |
| 20260905064954 | 80 | 96 | 0.0 | 0.0 | 0.00 | 0.00 | 0.00 | 82 | 1013.3 |
| 20260905064500 | 80 | 96 | 0.0 | 0.0 | 0.00 | 0.00 | 0.00 | 82 | 1013.3 |
| 20260905063937 | 80 | 96 | 0.0 | 1.0 | 0.00 | 0.00 | 0.00 | 82 | 1013.3 |
| 20260905063438 | 80 | 96 | 0.0 | 1.0 | 0.00 | 0.00 | 0.00 | 82 | 1013.3 |
| 20260905062951 | 80 | 96 | 0.0 | 0.0 | 0.00 | 0.00 | 0.00 | 81 | 1013.2 |
| 20260905062435 | 81 | 96 | 0.0 | 1.0 | 0.00 | 0.00 | 0.00 | 81 | 1013.2 |
| 20260905061959 | 81 | 96 | 0.0 | 0.0 | 0.00 | 0.00 | 0.00 | 81 | 1013.1 |
| 20260905061456 | 81 | 96 | 0.0 | 0.0 | 0.00 | 0.00 | 0.00 | 80 | 1013.1 |
| 20260905060957 | 81 | 96 | 0.0 | 0.0 | 0.00 | 0.00 | 0.00 | 80 | 1013.0 |
| 20260905060444 | 81 | 96 | 0.0 | 0.0 | 0.00 | 0.00 | 0.00 | 80 | 1013.1 |
| 20260905055937 | 81 | 96 | 0.0 | 0.0 | 0.00 | 0.00 | 0.00 | 80 | 1013.1 |
| 20260905055501 | 81 | 96 | 0.0 | 0.0 | 0.00 | 0.00 | 0.00 | 79 | 1013.0 |
| 20260905055011 | 81 | 96 | 0.0 | 0.0 | 0.00 | 0.00 | 0.00 | 79 | 1012.9 |
| 20260905054456 | 82 | 96 | 0.0 | 1.0 | 0.00 | 0.00 | 0.00 | 79 | 1012.8 |
| 20260905053957 | 82 | 96 | 0.0 | 1.0 | 0.00 | 0.00 | 0.00 | 78 | 1012.8 |
| 20260905053433 | 82 | 96 | 0.0 | 0.0 | 0.00 | 0.00 | 0.00 | 78 | 1012.8 |
| 20260905052940 | 82 | 96 | 0.0 | 0.0 | 0.00 | 0.00 | 0.00 | 78 | 1012.8 |
| 20260905052450 | 82 | 96 | 0.0 | 0.0 | 0.00 | 0.00 | 0.00 | 77 | 1012.8 |
| 20260905052011 | 82 | 96 | 0.0 | 0.0 | 0.00 | 0.00 | 0.00 | 77 | 1012.8 |
| 20260905051449 | 82 | 96 | 0.0 | 0.0 | 0.00 | 0.00 | 0.00 | 77 | 1012.7 |
| 20260905050945 | 83 | 96 | 0.0 | 1.0 | 0.00 | 0.00 | 0.00 | 77 | 1012.7 |
| 20260905050449 | 83 | 96 | 0.0 | 1.0 | 0.00 | 0.00 | 0.00 | 76 | 1012.8 |